Stations météo

réclame
Mon MeteoGroup
Hastveda, Suède (2629): Température de l'air & dewpoint: 17.04.2018 03:00:00 - 23.04.2018 03:00:00 (CEST)Hastveda, Suède (2629): Vitesse du vent & gusts: 17.04.2018 03:00:00 - 23.04.2018 03:00:00 (CEST)Hastveda, Suède (2629): Direction du vent: 17.04.2018 03:00:00 - 23.04.2018 03:00:00 (CEST)Hastveda, Suède (2629): reduced air pressure: 17.04.2018 03:00:00 - 23.04.2018 03:00:00 (CEST)Hastveda, Suède (2629): visibility: 17.04.2018 03:00:00 - 23.04.2018 03:00:00 (CEST)Hastveda, Suède (2629): Quantités de précipitations: 17.04.2018 03:00:00 - 23.04.2018 03:00:00 (CEST)
Date & Time tt [°C] td [°C] ff [km/h] ff [knt] fx [km/h] fx [knt] dd ppp [hPa] vv [km] rr [mm]
23.04.2018 03:00:00 4,3 3,6 11 6 25 14 E 1011,8 9 0,0
23.04.2018 02:00:00 4,3 3,4 11 6 22 12 ESE 1013,1 8 0,0
23.04.2018 01:00:00 4,9 3,7 11 6 22 12 ESE 1013,4 9 0,0
23.04.2018 00:00:00 5,1 3,8 11 6 14 8 ESE 1014,2 10 0,0
22.04.2018 23:00:00 6,0 4,0 7 4 22 12 ESE 1014,4 19 0,0
22.04.2018 22:00:00 7,1 4,2 11 6 25 14 ESE 1014,5 30 0,0
22.04.2018 21:00:00 9,5 4,1 11 6 22 12 ESE 1014,1 50 0,0
22.04.2018 20:00:00 11,7 3,7 11 6 18 10 ESE 1013,7 50 0,0
22.04.2018 19:00:00 13,3 3,4 11 6 18 10 ESE 1013,9 50 0,0
22.04.2018 18:00:00 15,9 4,3 11 6 14 8 SSE 1014,0 45 0,0
22.04.2018 17:00:00 16,2 3,6 7 4 18 10 SE 1014,4 50 0,0
22.04.2018 16:00:00 16,8 3,1 7 4 18 10 S 1014,8 45 0,0
22.04.2018 15:00:00 16,8 3,1 7 4 14 8 S 1015,2 40 0,0
22.04.2018 14:00:00 16,4 3,8 4 2 14 8 ESE 1015,7 45 0,0
22.04.2018 13:00:00 15,2 4,3 4 2 11 6 E 1016,2 40 0,0
22.04.2018 12:00:00 12,2 5,8 4 2 11 6 WSW 1016,8 40 0,0
22.04.2018 11:00:00 9,7 5,7 7 4 14 8 NW 1017,1 35 0,0
22.04.2018 10:00:00 7,8 5,8 7 4 14 8 W 1017,4 28 0,0
22.04.2018 09:00:00 6,4 5,8 7 4 14 8 W 1017,4 17 0,0
22.04.2018 08:00:00 5,4 5,3 7 4 14 8 NW 1017,4 8 0,0
22.04.2018 07:00:00 4,8 4,7 7 4 14 8 WNW 1017,4 3,9 0,0
22.04.2018 06:00:00 4,6 4,5 11 6 18 10 W 1017,3 2,9 0,0
22.04.2018 05:00:00 4,2 4,1 11 6 18 10 W 1017,5 1,7 0,0
22.04.2018 04:00:00 3,3 3,0 11 6 14 8 W 1017,4 12 0,0
22.04.2018 03:00:00 3,7 3,3 11 6 18 10 W 1017,5 19 0,0
22.04.2018 02:00:00 4,2 3,6 11 6 14 8 WNW 1017,8 30 0,0
22.04.2018 01:00:00 4,6 3,4 11 6 14 8 W 1018,0 45 0,0
22.04.2018 00:00:00 5,3 3,1 11 6 14 8 W 1017,9 50 0,0
21.04.2018 23:00:00 6,5 3,3 11 6 18 10 W 1017,6 45 0,0
21.04.2018 22:00:00 7,4 3,3 11 6 22 12 W 1017,7 50 0,0
21.04.2018 21:00:00 9,1 3,3 11 6 29 16 W 1017,9 50 0,0
21.04.2018 20:00:00 10,8 3,6 18 10 40 21 W 1017,5 45 0,0
21.04.2018 19:00:00 12,3 3,0 18 10 50 27 W 1017,4 45 0,0
21.04.2018 18:00:00 13,4 2,6 25 14 43 23 W 1017,4 45 0,0
21.04.2018 17:00:00 14,4 2,9 25 14 43 23 WNW 1017,5 40 0,0
21.04.2018 16:00:00 15,4 3,2 22 12 50 27 W 1017,4 45 0,0
21.04.2018 15:00:00 15,2 3,3 25 14 47 25 W 1017,3 45 0,0
21.04.2018 14:00:00 15,3 3,1 29 16 50 27 WNW 1017,1 45 0,0
21.04.2018 13:00:00 15,1 3,9 25 14 43 23 W 1016,9 35 0,0
21.04.2018 12:00:00 14,4 4,4 25 14 43 23 WNW 1016,8 40 0,0
21.04.2018 11:00:00 13,7 4,6 22 12 43 23 W 1016,4 35 0,0
21.04.2018 10:00:00 12,6 4,8 18 10 40 21 W 1016,0 45 0,0
21.04.2018 09:00:00 11,0 5,3 22 12 43 23 WNW 1015,7 40 0,0
21.04.2018 08:00:00 9,3 5,5 22 12 40 21 W 1015,4 35 0,0
21.04.2018 07:00:00 7,9 5,5 18 10 29 16 W 1015,2 20 0,0
21.04.2018 06:00:00 7,5 5,3 18 10 32 18 W 1014,9 13 0,0
21.04.2018 05:00:00 7,8 6,1 18 10 29 16 W 1014,8 8 0,0
21.04.2018 04:00:00 8,5 6,6 14 8 25 14 W 1014,6 8 0,0
21.04.2018 03:00:00 10,0 7,2 14 8 36 19 W 1014,4 9 0,0
21.04.2018 02:00:00 11,3 7,8 18 10 36 19 W 1014,2 11 0,0
21.04.2018 01:00:00 12,6 8,5 18 10 40 21 W 1014,1 11 0,0
21.04.2018 00:00:00 13,7 8,7 18 10 32 18 W 1013,9 9 0,0
20.04.2018 23:00:00 16,0 9,2 14 8 36 19 W 1013,5 12 0,0
20.04.2018 22:00:00 18,0 10,9 18 10 29 16 W 1013,4 13 0,0
20.04.2018 21:00:00 18,5 11,3 11 6 18 10 SW 1013,6 30 0,0
20.04.2018 20:00:00 20,5 11,1 11 6 25 14 WSW 1013,6 30 0,0
20.04.2018 19:00:00 21,9 10,4 11 6 29 16 SW 1013,9 45 0,0
20.04.2018 18:00:00 23,2 10,6 14 8 32 18 SSW 1015,1 40 0,0
20.04.2018 17:00:00 23,6 9,9 18 10 32 18 SW 1016,2 40 0,0
20.04.2018 16:00:00 24,1 10,7 14 8 32 18 SSW 1017,3 45 0,0
20.04.2018 15:00:00 23,9 10,6 18 10 32 18 SSW 1018,6 40 0,0
20.04.2018 14:00:00 23,2 11,3 18 10 29 16 SW 1019,8 40 0,0
20.04.2018 13:00:00 23,1 10,8 14 8 29 16 SSW 1020,8 40 0,0
20.04.2018 12:00:00 22,0 12,0 14 8 25 14 SSW 1021,7 35 0,0
20.04.2018 11:00:00 19,9 12,6 11 6 18 10 SSW 1022,9 30 0,0
20.04.2018 10:00:00 17,0 11,7 7 4 14 8 SSW 1023,9 40 0,0
20.04.2018 09:00:00 13,6 10,8 4 2 7 4 S 1024,5 30 0,0
20.04.2018 08:00:00 10,1 9,5 4 2 4 2 ESE 1025,5 17 0,0
20.04.2018 07:00:00 8,4 8,0 4 2 14 8 S 1026,1 12 0,0
20.04.2018 06:00:00 9,8 9,0 7 4 14 8 SSW 1026,2 9 0,0
20.04.2018 05:00:00 10,2 9,3 7 4 14 8 SW 1026,6 9 0,0
20.04.2018 04:00:00 10,2 9,4 7 4 11 6 SW 1027,0 13 0,0
20.04.2018 03:00:00 10,8 9,6 7 4 11 6 WSW 1027,4 21 0,0
20.04.2018 02:00:00 10,9 9,3 7 4 7 4 WSW 1028,0 40 0,0
20.04.2018 01:00:00 11,8 10,0 7 4 7 4 WSW 1028,4 45 0,0
20.04.2018 00:00:00 12,6 10,7 7 4 7 4 WSW 1028,5 45 0,0
19.04.2018 23:00:00 13,2 10,7 7 4 7 4 WSW 1028,6 50 0,0
19.04.2018 22:00:00 13,2 10,6 7 4 11 6 NW 1028,9 45 0,0
19.04.2018 21:00:00 15,1 11,1 7 4 14 8 WNW 1029,1 50 0,0
19.04.2018 20:00:00 17,1 11,8 7 4 18 10 WNW 1028,9 50 0,0
19.04.2018 19:00:00 19,6 11,9 11 6 18 10 NW 1028,9 45 0,0
19.04.2018 18:00:00 21,4 12,0 7 4 25 14 WNW 1029,2 45 0,0
19.04.2018 17:00:00 22,6 12,5 7 4 22 12 WNW 1029,4 45 0,0
19.04.2018 16:00:00 22,4 12,6 7 4 22 12 WNW 1029,8 45 0,0
19.04.2018 15:00:00 20,7 12,4 11 6 22 12 W 1030,5 35 0,0
19.04.2018 14:00:00 19,0 12,0 11 6 22 12 WNW 1031,1 35 0,0
19.04.2018 13:00:00 18,2 12,2 7 4 18 10 NW 1031,6 40 0,0
19.04.2018 12:00:00 15,0 11,6 11 6 18 10 WNW 1032,1 30 0,0
19.04.2018 11:00:00 13,5 11,4 11 6 22 12 WNW 1032,2 26 0,0
19.04.2018 10:00:00 12,3 11,0 11 6 14 8 NW 1032,2 14 0,0
19.04.2018 09:00:00 10,7 10,2 7 4 14 8 NW 1031,8 7 0,0
19.04.2018 08:00:00 9,6 9,5 7 4 11 6 NNW 1031,7 5 0,0
19.04.2018 07:00:00 8,5 8,4 7 4 11 6 NW 1031,4 2,4 0,0
19.04.2018 06:00:00 7,5 7,4 7 4 14 8 NW 1031,5 1,5 0,0
19.04.2018 05:00:00 8,3 8,2 11 6 14 8 WNW 1031,4 3,1 0,0
19.04.2018 04:00:00 8,5 8,4 11 6 14 8 WNW 1031,3 4,0 0,0
19.04.2018 03:00:00 8,6 8,3 7 4 18 10 WNW 1031,3 4,6 0,0
19.04.2018 02:00:00 8,8 8,5 11 6 14 8 W 1031,3 6 0,0
19.04.2018 01:00:00 9,5 8,9 7 4 11 6 W 1031,0 8 0,0
19.04.2018 00:00:00 10,3 9,5 7 4 11 6 WNW 1031,2 11 0,0
18.04.2018 23:00:00 10,8 9,7 7 4 14 8 W 1030,8 13 0,0
18.04.2018 22:00:00 11,5 9,7 7 4 14 8 W 1030,7 20 0,0
18.04.2018 21:00:00 12,6 10,0 11 6 22 12 W 1030,1 25 0,0
18.04.2018 20:00:00 14,4 10,2 11 6 29 16 W 1029,8 26 0,0
18.04.2018 19:00:00 15,8 10,3 18 10 32 18 WNW 1029,5 30 0,0
18.04.2018 18:00:00 16,1 10,2 18 10 32 18 WNW 1029,3 35 0,0
18.04.2018 17:00:00 18,4 10,5 18 10 36 19 WNW 1029,0 40 0,0
18.04.2018 16:00:00 17,1 10,5 22 12 40 21 WNW 1029,1 45 0,0
18.04.2018 15:00:00 18,3 10,9 22 12 40 21 W 1028,8 35 0,0
18.04.2018 14:00:00 17,4 10,5 18 10 32 18 W 1028,6 35 0,0
18.04.2018 13:00:00 17,1 9,0 14 8 32 18 W 1028,3 40 0,0
18.04.2018 12:00:00 17,2 8,1 22 12 29 16 W 1028,2 35 0,0
18.04.2018 11:00:00 16,5 8,0 14 8 25 14 W 1028,3 30 0,0
18.04.2018 10:00:00 14,5 7,3 11 6 25 14 SW 1028,3 30 0,0
18.04.2018 09:00:00 12,0 6,7 14 8 25 14 SW 1028,3 30 0,0
18.04.2018 08:00:00 9,3 6,2 11 6 22 12 SW 1028,4 21 0,0
18.04.2018 07:00:00 7,8 6,1 11 6 14 8 SW 1028,1 15 0,0
18.04.2018 06:00:00 7,7 6,2 7 4 14 8 SW 1028,2 13 0,0
18.04.2018 05:00:00 7,5 6,1 11 6 14 8 SW 1028,1 13 0,0
18.04.2018 04:00:00 7,1 6,0 7 4 7 4 WSW 1028,1 13 0,0
18.04.2018 03:00:00 7,4 6,3 7 4 11 6 WSW 1027,8 14 0,0
18.04.2018 02:00:00 6,8 6,1 7 4 7 4 SW 1027,7 10 0,0
18.04.2018 01:00:00 6,8 6,1 7 4 11 6 SW 1027,8 11 0,0
18.04.2018 00:00:00 7,1 6,2 7 4 7 4 SW 1027,5 14 0,0
17.04.2018 23:00:00 7,1 6,2 4 2 7 4 WSW 1027,0 15 0,0
17.04.2018 22:00:00 7,1 6,0 4 2 11 6 W 1026,7 15 0,0
17.04.2018 21:00:00 7,7 6,0 7 4 18 10 WNW 1026,5 21 0,0
17.04.2018 20:00:00 9,6 6,1 11 6 25 14 WNW 1025,8 35 0,0
17.04.2018 19:00:00 11,5 6,0 14 8 25 14 WNW 1025,2 45 0,0
17.04.2018 18:00:00 13,1 6,4 11 6 25 14 W 1024,8 45 0,0
17.04.2018 17:00:00 13,1 6,7 14 8 25 14 NW 1024,5 45 0,0
17.04.2018 16:00:00 11,7 7,0 14 8 25 14 W 1024,5 40 0,0
17.04.2018 15:00:00 9,4 6,8 11 6 25 14 WNW 1024,5 35 0,0
17.04.2018 14:00:00 9,9 7,1 14 8 22 12 W 1024,2 35 0,0
17.04.2018 13:00:00 9,7 7,6 14 8 22 12 W 1023,8 22 0,0
17.04.2018 12:00:00 9,4 7,8 14 8 22 12 W 1023,1 10 0,0
17.04.2018 11:00:00 10,2 8,5 11 6 22 12 W 1022,7 10 0,0
17.04.2018 10:00:00 9,7 8,9 7 4 18 10 W 1022,2 4,2 0,0
17.04.2018 09:00:00 8,8 8,3 7 4 11 6 W 1021,6 5 0,0
17.04.2018 08:00:00 7,4 7,3 4 2 7 4 WSW 1020,9 9 0,0
17.04.2018 07:00:00 6,5 6,4 4 2 7 4 W 1020,2 5 0,0
17.04.2018 06:00:00 6,4 6,3 4 2 7 4 S 1019,7 7 0,0
17.04.2018 05:00:00 5,7 5,6 4 2 7 4 WSW 1019,3 8 0,0
17.04.2018 04:00:00 5,9 5,6 0 0 7 4 N 1019,2 10 0,0
17.04.2018 03:00:00 7,2 6,8 4 2 7 4 N 1019,1 30 0,0

tt = Température de l'air
td = dewpoint
ff = Vitesse du vent
fx = gusts
dd = Direction du vent
ppp = reduced air pressure
vv = visibility
rr = Quantités de précipitations

stations d'obs. à proximité